Probability
0 1 3 6 9 10 9 10 11 11 10 8 7 8 8 6 4 3 3 3 3 2 1 0 0 1 4 5 5 4 3 3 1 0 0 0 1 2 2 2 2 2 3
1 2 3 7 10 10 8 9 11 12 10 8 7 6 6 4 3 3 3 3 3 3 2 1 1 3 4 5 5 4 3 3 2 1 1 1 1 2 2 3 3 4 4
2 3 5 9 12 10 8 8 11 13 13 10 6 5 5 4 4 4 6 6 5 6 6 5 4 4 4 4 4 4 3 3 3 4 4 4 4 3 2 2 3 4 5
4 6 8 11 12 10 7 8 11 15 16 13 9 7 7 5 5 6 8 9 9 9 9 8 7 6 4 4 5 6 5 5 6 7 8 9 7 6 5 4 4 4 5
8 9 11 12 11 8 7 8 11 15 17 16 14 11 8 6 6 7 9 10 11 10 9 8 9 7 6 5 6 7 7 8 9 10 11 11 10 9 8 7 6 5 5
10 11 12 12 11 9 8 9 12 16 18 17 15 12 10 8 8 9 10 11 11 10 9 9 10 10 9 8 7 7 7 9 9 10 10 10 10 11 11 10 8 6 6
11 13 14 13 12 11 9 10 14 17 19 18 16 14 12 11 10 11 11 11 10 9 9 10 12 12 12 10 8 6 5 6 7 7 8 8 9 9 10 10 8 7 7
14 14 14 13 14 13 11 12 16 18 18 19 17 15 14 13 12 13 12 9 8 8 8 10 12 13 13 11 8 6 4 4 5 6 6 7 7 7 8 8 7 6 6
14 14 14 14 15 15 15 16 19 20 18 17 16 15 14 13 12 11 10 8 7 7 8 9 11 13 13 11 10 8 5 4 5 6 6 7 7 6 7 7 6 5 5
14 14 15 15 16 18 19 20 22 21 18 15 14 13 13 12 11 10 9 9 10 10 9 9 10 12 13 12 11 9 6 5 6 6 6 6 6 6 7 8 8 7 7
15 15 16 16 17 20 23 23 24 23 22 20 19 17 15 14 13 11 10 10 12 12 10 8 9 11 12 12 12 10 8 7 8 7 7 7 7 7 8 8 9 9 10
16 16 17 19 20 23 26 26 26 27 28 28 26 24 21 18 15 13 11 12 12 11 9 7 7 9 11 12 12 10 9 9 10 9 8 7 9 10 9 8 7 8 9
16 17 20 23 24 24 27 29 29 30 30 31 30 29 26 22 17 15 14 13 11 8 5 6 6 8 9 11 11 10 9 9 10 11 9 8 10 13 12 8 6 6 6
13 16 22 26 28 27 28 31 32 32 31 31 32 32 29 25 22 20 17 15 11 6 4 5 6 7 8 10 10 9 7 8 9 10 9 9 10 12 11 7 6 6 5
12 15 20 26 30 32 33 35 35 32 32 32 32 32 30 28 26 23 20 16 13 8 6 5 5 6 7 7 7 6 6 7 9 9 9 9 9 8 5 4 4 5 5
13 15 18 22 27 33 39 40 36 34 34 34 33 33 33 31 27 24 20 17 14 11 9 7 6 6 6 5 4 4 5 7 9 9 10 10 9 6 3 1 1 3 4
19 20 21 21 25 32 39 41 37 35 36 35 34 35 35 31 25 22 20 18 16 14 13 11 8 7 5 3 3 3 4 6 8 9 11 12 11 8 6 5 3 2 2
25 25 23 23 27 32 36 38 36 35 35 34 33 33 33 29 24 22 22 22 21 19 17 14 11 8 5 2 2 3 4 6 8 8 10 12 12 10 8 8 8 6 4
28 26 23 24 28 31 32 33 33 33 33 32 30 30 30 28 25 24 24 25 25 23 20 17 14 11 6 2 1 2 5 7 8 8 9 10 10 7 6 8 10 10 8
24 22 20 22 26 28 28 29 31 31 30 28 26 26 27 26 25 24 25 26 25 23 19 16 15 12 7 2 0 2 5 7 7 8 9 8 6 4 3 5 8 9 8
19 18 19 22 25 26 26 28 29 29 26 24 23 23 23 23 24 25 25 25 25 21 17 15 15 13 8 4 1 1 4 6 6 6 7 7 4 1 1 2 5 5 5
16 17 20 22 23 23 24 25 27 26 24 23 22 20 19 20 22 23 23 23 23 20 17 16 15 13 10 6 2 1 2 4 5 4 6 6 2 0 0 0 1 2 2
16 17 18 18 18 19 20 21 23 23 24 24 23 20 18 18 20 20 20 20 20 19 18 17 15 12 11 9 5 2 2 3 3 4 4 3 1 0 0 0 0 0 1
16 16 15 15 15 16 17 18 19 19 21 23 22 18 15 16 17 16 15 15 15 16 17 16 13 12 12 12 9 5 3 2 3 4 4 3 2 1 1 2 2 3 4
16 15 14 14 13 13 14 15 15 15 16 19 19 15 13 13 13 11 10 9 9 10 11 11 10 9 10 9 8 6 4 3 3 4 5 4 4 4 4 5 7 8 9
15 15 14 12 10 10 12 13 12 12 13 15 16 14 12 11 10 9 7 5 5 4 5 6 6 6 6 6 5 4 3 2 3 4 4 5 6 6 6 8 10 11 12
Wind_Speed
8 8 8 8 8 8 7 7 6 6 5 4 4 3 3 2 2 1 1 1 1 1 1 1 1 1 1 1 1 1 2 1 0 1 1 1 2 1 1 1 1 1 1
9 9 9 9 9 8 8 8 7 6 6 4 3 2 2 2 2 1 1 1 1 2 2 1 1 1 0 1 1 1 1 1 1 2 2 1 2 2 1 1 2 1 1
10 10 10 9 9 9 9 7 7 7 5 5 4 3 3 2 2 2 2 2 2 1 0 1 1 1 1 1 1 1 2 1 1 1 2 2 1 0 2 2 1 1 1
9 10 10 10 9 9 8 8 7 7 6 6 5 5 3 3 2 2 2 2 2 2 2 2 1 2 1 1 2 1 1 2 2 1 1 2 2 2 1 2 2 2 1
9 10 10 9 9 8 8 8 8 7 6 5 5 4 4 3 3 3 3 3 3 2 2 2 2 2 2 1 1 0 2 2 2 1 1 1 1 3 3 1 1 2 1
9 9 9 9 8 8 8 8 8 7 7 6 6 5 4 3 3 3 3 3 3 2 3 2 2 2 1 1 2 2 2 2 2 2 1 2 2 2 2 2 2 2 1
8 10 10 9 8 8 8 8 9 8 7 7 6 6 5 5 5 4 4 3 2 2 2 2 2 2 1 2 1 1 1 1 2 2 1 2 2 2 2 3 2 3 1
7 9 9 9 8 8 8 8 8 8 8 7 6 5 5 4 3 3 3 3 2 1 1 2 3 2 2 2 1 1 1 1 2 1 1 2 2 2 2 2 3 3 2
7 8 9 9 8 8 8 8 7 7 7 7 6 5 5 4 2 2 3 2 2 2 2 2 2 2 2 1 2 1 1 1 1 1 2 2 1 2 2 2 3 3 3
7 8 8 8 8 8 8 7 7 7 6 6 6 5 5 5 4 3 2 1 2 1 2 2 2 2 2 2 2 2 1 1 1 1 1 2 2 1 1 2 2 3 4
7 8 7 7 7 8 8 8 7 7 6 6 5 4 5 5 5 4 3 3 2 3 3 2 2 2 2 2 2 2 2 2 2 2 2 2 2 2 2 2 2 2 3
6 7 7 7 7 7 8 7 7 7 6 5 5 5 4 4 4 4 4 3 3 3 3 3 3 3 3 2 2 3 2 2 3 2 2 2 2 2 2 2 2 2 2
5 6 7 7 6 7 7 7 7 6 6 5 5 5 4 4 4 3 3 3 3 3 3 3 3 3 3 3 3 3 3 3 3 3 3 3 2 3 2 2 2 2 2
5 6 6 6 6 6 6 6 6 6 5 5 5 5 4 4 4 4 4 4 3 3 3 3 4 3 3 3 3 3 3 3 3 3 3 3 3 3 3 2 2 2 2
5 5 5 6 6 6 5 5 5 5 5 5 4 4 4 4 4 4 4 3 3 3 3 3 3 4 4 3 3 4 4 4 4 3 3 2 1 1 2 2 1 2 2
4 4 5 5 5 5 5 5 5 5 5 5 4 3 4 4 4 4 4 4 3 3 3 3 3 3 3 2 2 4 4 4 4 4 4 3 4 3 3 2 2 2 3
3 4 3 4 5 5 5 5 5 5 5 4 4 3 3 4 4 4 4 4 3 3 3 3 3 3 3 3 4 5 5 5 4 4 4 4 3 5 4 5 5 4 3
2 2 2 3 3 4 4 4 4 4 4 4 3 3 3 3 3 4 4 4 3 4 4 4 4 4 3 5 5 6 6 5 5 5 5 5 4 4 4 5 5 5 4
2 2 1 2 3 3 3 4 4 4 4 4 3 3 4 4 4 4 4 4 3 4 4 4 4 5 4 5 6 7 6 6 6 6 6 6 5 2 3 6 6 5 5
2 2 2 2 3 2 2 3 3 4 4 4 4 4 4 4 4 4 4 3 3 4 4 4 4 5 5 5 7 7 6 5 5 5 6 6 6 3 5 7 7 7 6
3 2 2 2 2 2 2 2 2 3 3 3 3 3 4 4 4 4 3 3 3 3 4 4 4 5 5 6 7 7 6 5 5 5 4 3 7 6 7 7 7 6 6
2 2 2 1 2 2 2 3 3 2 2 3 3 3 4 4 3 3 3 4 4 5 5 4 4 4 4 4 6 8 8 6 5 5 4 2 6 6 7 7 5 6 7
1 1 1 1 1 1 2 3 2 2 3 3 3 3 4 3 3 4 4 4 4 4 4 3 4 3 2 3 6 8 8 7 6 4 2 1 4 5 7 8 8 8 7
1 1 1 1 0 1 2 2 1 2 3 3 3 3 4 4 3 3 4 4 4 4 3 3 3 3 3 2 2 3 5 7 7 5 4 6 7 7 5 5 7 7 5
0 0 1 1 1 1 1 1 1 2 3 3 3 3 4 3 2 3 2 3 2 2 3 3 3 3 3 1 1 2 3 3 2 3 4 4 4 5 5 5 5 5 5
1 1 1 0 0 1 1 1 1 2 3 3 3 3 3 2 3 2 2 1 2 1 2 3 4 2 1 1 1 2 2 2 3 4 5 5 5 5 5 5 5 5 5
Wind_Direction
171 170 170 168 165 165 166 166 166 164 171 171 179 172 168 170 167 175 150 188 190 187 241 280 151 251 195 230 213 212 181 210 195 234 210 205 205 201 209 213 216 175 189
172 171 175 175 173 171 172 172 174 173 180 165 168 169 170 182 176 175 143 207 201 214 197 208 220 204 180 187 205 207 246 226 212 279 266 225 185 187 172 183 192 201 200
178 173 178 179 176 175 178 176 176 176 178 172 171 163 168 189 181 183 177 185 191 195 229 180 242 220 227 162 232 228 222 243 233 273 293 289 309 229 165 177 167 180 207
179 174 175 178 178 177 177 176 175 176 174 180 183 189 194 197 188 200 175 174 178 194 197 205 209 243 246 170 231 186 250 246 239 219 268 302 329 281 208 192 170 178 204
177 172 172 174 175 174 174 171 170 174 178 187 179 198 206 203 194 194 172 196 178 193 206 207 213 222 238 216 248 238 250 240 256 258 249 253 239 259 269 250 233 221 207
175 171 169 167 171 170 171 167 169 175 180 189 190 199 200 208 209 208 194 203 193 197 199 200 207 216 217 199 214 232 221 251 266 270 268 262 269 270 272 264 254 251 208
178 172 169 169 172 172 171 168 169 175 182 190 196 198 203 206 208 220 205 223 216 200 182 201 204 207 195 205 210 202 249 221 226 239 260 274 281 286 274 276 278 277 248
174 170 169 172 173 173 171 170 171 175 181 186 190 196 205 214 205 216 230 222 230 225 177 195 197 199 210 208 200 210 209 199 223 237 275 263 271 267 266 280 277 268 250
169 168 168 169 168 170 170 169 168 172 180 183 183 190 200 214 212 211 224 220 219 196 185 210 202 194 206 230 236 220 250 240 239 216 214 256 257 258 266 270 271 275 274
170 168 166 166 165 166 163 164 166 172 179 183 189 183 187 190 198 212 198 208 210 204 198 212 206 201 211 222 242 224 211 241 245 261 295 280 270 267 254 263 271 273 280
168 166 164 162 162 159 160 165 165 170 177 182 185 186 186 186 186 188 194 196 206 195 191 198 209 211 219 225 229 244 225 237 237 241 227 252 288 277 266 251 258 268 274
162 161 159 156 160 161 162 164 167 172 174 172 174 180 182 183 187 187 191 194 197 204 199 200 205 214 216 224 228 242 238 241 241 248 247 246 232 235 266 266 266 274 272
148 153 155 157 163 166 166 166 171 169 167 168 171 177 179 177 184 186 189 198 202 209 216 212 213 222 224 224 233 237 235 238 239 241 245 248 244 237 235 252 263 264 252
144 150 154 157 162 165 167 170 170 166 168 168 172 174 184 183 185 190 193 198 204 212 221 228 225 224 226 228 230 229 228 234 232 232 237 239 239 239 238 233 249 276 276
149 154 158 155 163 165 168 172 174 170 169 173 183 178 186 191 192 192 199 206 216 218 218 228 233 230 225 227 225 226 220 224 231 227 226 223 224 335 287 283 265 255 264
155 155 160 160 165 167 168 169 176 173 172 179 187 186 193 195 198 201 205 208 212 222 220 229 237 243 240 137 199 245 230 225 228 230 233 218 198 198 202 267 294 300 272
151 153 159 170 173 173 170 171 175 175 175 176 179 182 192 199 205 207 205 209 214 217 226 238 240 248 233 170 199 229 238 235 235 233 235 243 209 199 214 202 207 222 247
130 142 157 160 165 168 167 172 174 179 178 180 188 195 204 205 205 209 211 216 220 223 227 233 236 240 224 184 204 220 228 236 236 235 233 241 244 234 234 231 223 224 218
97 121 144 141 141 158 161 169 181 180 184 188 198 204 212 213 210 211 216 222 224 231 236 233 234 235 226 199 211 227 231 229 233 234 234 236 238 212 227 239 238 238 233
93 99 112 121 134 144 161 183 190 191 197 202 209 215 220 223 224 221 221 222 227 234 242 238 235 234 233 204 207 224 236 234 233 229 228 222 230 201 209 238 242 242 245
97 107 118 128 123 141 170 203 211 215 214 213 215 218 222 227 225 222 222 223 232 240 246 244 241 237 233 203 201 217 243 243 242 238 233 210 183 204 215 239 249 254 258
100 101 108 107 127 165 191 216 229 234 225 226 224 222 225 233 222 222 227 226 232 234 236 236 241 234 220 216 198 205 232 266 258 257 252 203 170 202 220 229 240 247 253
72 87 117 130 136 209 225 236 243 236 232 234 234 235 237 236 229 225 228 229 227 240 243 242 246 247 238 192 187 200 218 236 249 266 315 239 197 215 222 221 224 229 239
35 81 115 129 185 243 254 256 258 242 241 237 238 239 240 241 232 238 237 239 241 244 249 251 256 255 253 247 211 210 206 208 222 237 216 204 213 231 241 218 218 231 242
68 139 171 202 234 211 230 262 256 240 241 241 243 246 247 247 245 245 260 256 268 289 273 270 260 260 262 305 324 277 272 277 286 270 246 237 223 225 226 229 229 233 232
96 131 138 109 50 337 323 307 275 246 246 247 252 256 252 240 245 246 247 246 236 207 235 265 275 268 265 240 238 238 251 250 240 250 248 247 247 244 240 238 234 234 238